Weather History for Cut Bank, MT

Change the Weather History Date:

Thursday, November 22, 2012

  Actual Average Record
Temperature  
Mean Temperature 16 °F 28 °F  
Max Temperature 23 °F 37 °F 67 °F (2005)
Min Temperature 9 °F 18 °F -22 °F (1970)
Degree Days  
Heating Degree Days 49 37  
Month to date heating degree days 693 728  
Since 1 July heating degree days 1864 1952  
Cooling Degree Days 0 0  
Month to date cooling degree days 0 0  
Year to date cooling degree days 210 162  
Moisture  
Dew Point 10 °F    
Average Humidity 81    
Maximum Humidity 100    
Minimum Humidity 62    
Precipitation  
Precipitation T in 0.01 in 0.15 in (1980)
Month to date precipitation 0.04 0.28  
Year to date precipitation 8.29 10.60  
Snow  
Snow 0.00 in - - ()
Snow Depth 0.00 in    
Sea Level Pressure  
Sea Level Pressure 30.35 in    
Wind  
Wind Speed 9 mph (NNE)    
Max Wind Speed 23 mph    
Max Gust Speed 29 mph    
Visibility 9 miles    
Events Snow    
T = Trace of Precipitation, MM = Missing Value Source: NWS Daily Summary

Daily Weather History Graph

Daily Weather History Graph

Search for Another Location

Airport:

Trip Planner

Search our weather history database for the weather conditions in past years. The results will help you decide how hot, cold, wet, or windy it might be!

Date:

Astronomy

Nov. 22, 2012 Rise Set
Actual Time 7:49 AM MST 4:42 PM MST
Civil Twilight 7:13 AM MST 5:17 PM MST
Nautical Twilight 6:35 AM MST 5:56 PM MST
Astronomical Twilight 5:57 AM MST 6:33 PM MST
Moon 1:51 PM MST 1:48 AM MST
Length of Visible Light 10h 03m
Length of Day
8h 52m
Waxing Gibbous, 72% of the Moon is Illuminated
Nov 22
Waxing Gibbous
Nov 28
Full
Dec 6
Last Quarter
Dec 13
New
Dec 19
First Quarter

Hourly Weather History & Observations

Time (MST) Temp. Windchill Dew Point Humidity Pressure Visibility Wind Dir Wind Speed Gust Speed Precip Events Conditions
12:12 AM 19.4 °F 5.5 °F 17.6 °F 93% 29.88 in 7.0 mi North 15.0 mph - N/A   Mostly Cloudy
12:56 AM 18.0 °F 2.6 °F 16.0 °F 92% 30.02 in 5.0 mi North 17.3 mph - N/A   Overcast
1:56 AM 17.1 °F 3.6 °F 15.1 °F 92% 30.05 in 7.0 mi North 12.7 mph - N/A   Overcast
2:56 AM 12.9 °F -4.9 °F 10.9 °F 92% 30.13 in 6.0 mi North 19.6 mph - N/A   Overcast
3:10 AM 12.2 °F -4.8 °F 10.4 °F 92% 30.02 in 5.0 mi North 17.3 mph 24.2 mph 0.00 in Snow Light Snow
3:56 AM 12.0 °F -6.5 °F 9.0 °F 88% 30.18 in 7.0 mi North 20.7 mph - 0.00 in   Overcast
4:03 AM 12.2 °F -5.3 °F 8.6 °F 85% 30.05 in 8.0 mi North 18.4 mph - N/A   Overcast
4:56 AM 12.0 °F -6.0 °F 7.0 °F 80% 30.25 in 10.0 mi North 19.6 mph 26.5 mph N/A   Overcast
5:38 AM 10.4 °F -8.2 °F 5.0 °F 79% 30.13 in 10.0 mi North 19.6 mph - N/A   Overcast
5:56 AM 10.0 °F -8.1 °F 5.0 °F 80% 30.31 in 10.0 mi North 18.4 mph 25.3 mph N/A   Mostly Cloudy
6:03 AM 10.4 °F -8.2 °F 5.0 °F 79% 30.15 in 10.0 mi North 19.6 mph - N/A   Scattered Clouds
6:56 AM 9.0 °F -4.2 °F 5.0 °F 84% 30.33 in 10.0 mi North 9.2 mph - N/A   Clear
7:56 AM 9.0 °F -3.2 °F 5.0 °F 84% 30.39 in 10.0 mi North 8.1 mph - N/A   Clear
8:56 AM 10.9 °F -4.7 °F 5.0 °F 77% 30.41 in 10.0 mi North 13.8 mph - N/A   Clear
9:56 AM 12.9 °F -0.2 °F 5.0 °F 71% 30.44 in 10.0 mi North 10.4 mph - N/A   Clear
10:56 AM 16.0 °F 7.4 °F 6.1 °F 65% 30.47 in 10.0 mi NNW 5.8 mph - N/A   Clear
11:56 AM 16.0 °F 8.8 °F 8.1 °F 71% 30.51 in 10.0 mi NNW 4.6 mph - N/A   Clear
12:56 PM 18.0 °F - 9.0 °F 68% 30.51 in 10.0 mi Calm Calm - N/A   Clear
1:56 PM 21.0 °F - 10.9 °F 65% 30.51 in 10.0 mi Calm Calm - N/A   Clear
2:56 PM 21.9 °F - 12.0 °F 66% 30.52 in 10.0 mi Calm Calm - N/A   Clear
3:56 PM 21.0 °F - 12.0 °F 68% 30.54 in 10.0 mi Calm Calm - N/A   Clear
4:56 PM 19.0 °F 13.9 °F 12.0 °F 74% 30.56 in 10.0 mi South 3.5 mph - N/A   Clear
5:56 PM 18.0 °F 8.7 °F 12.0 °F 78% 30.57 in 10.0 mi SSE 6.9 mph - N/A   Clear
6:56 PM 17.1 °F 5.8 °F 10.9 °F 77% 30.57 in 10.0 mi SSE 9.2 mph - N/A   Clear
7:56 PM 16.0 °F 7.4 °F 10.9 °F 81% 30.56 in 10.0 mi South 5.8 mph - N/A   Clear
8:56 PM 16.0 °F 10.4 °F 10.9 °F 81% 30.56 in 10.0 mi SE 3.5 mph - N/A   Clear
9:56 PM 16.0 °F 7.4 °F 12.0 °F 84% 30.54 in 10.0 mi ESE 5.8 mph - N/A   Clear
10:56 PM 16.0 °F 8.8 °F 12.0 °F 84% 30.51 in 10.0 mi SE 4.6 mph - N/A   Clear
11:56 PM 15.1 °F 6.4 °F 10.9 °F 84% 30.49 in 10.0 mi SE 5.8 mph - N/A   Clear